Weather in Bacău

Romania     46˚32′50″N   26˚55′01″E
temp.,
°C
wind,
m/s
gust,
m/s
humid.,
%
clouds,
%
prec.,
mm/h
давл.,
hPa
HPBL,
m
27 november, fri
fri2723:00+1˚sse33560 0.0 102339
02:00+1˚sse22530 0.0 102322
05:00se00500 0.0 102222
08:00nw11460 0.0 102222
11:00+6˚n11320 0.0 1021179
14:00+8˚nne11300 0.0 1020327
17:00+4˚n22460 0.0 102022
20:00+2˚nnw225331 0.0 102022
28 november, sat
sat2823:00+2˚nnw2255100 0.0 102122
02:00+1˚nnw225898 0.0 102022
05:00nnw226388 0.0 102021
08:00−1˚nnw226750 0.0 102023
11:00+3˚nnw2264100 0.0 1019237
14:00+5˚e1162100 0.0 1018353
17:00+2˚sse1172100 0.0 101822
20:00+1˚se1180100 0.0 101822
29 november, sun
sun2923:00nw2284100 0.0 101822
02:00nw2397100 0.0 101961
05:00+1˚nw4697100 0.2 1019310
08:00nw2692100 0.3 1020316
11:00+2˚nnw337571 0.0 1021511
14:00+3˚nne226554 0.0 1020693
17:00ne127712 0.0 102122
20:00−1˚nne11816 0.0 102221
30 november, mon
mon3023:00−2˚nnw01847 0.0 102221
02:00−2˚n128616 0.0 102221
05:00−2˚nnw238386 0.0 102358
08:00−3˚nnw248488 0.0 102595
11:00+1˚n456385 0.0 1026532
14:00+2˚n575942 0.0 1026933
17:00−1˚nnw498162 0.0 1028308
20:00−2˚nnw4108942 0.0 1030344
1 december, tue
tue123:00−3˚nnw4118918 0.0 1031385
02:00−3˚nnw4108813 0.0 1030349
05:00−4˚nw499011 0.0 1030304
08:00−4˚nw37898 0.0 1031220
11:00nnw57630 0.0 1029710
14:00+1˚n45550 0.0 1027639
17:00−3˚nne12730 0.0 102621
20:00−3˚n007629 0.0 102621